Regional Weather Roundup
Issued by NWS

Home | Current Version | Previous Version | Graphics & Text | Print | Product List | Glossary On
Versions: 1 2 3 4 5 6 7 8 9 10 11 12 13 14 15 16 17 18 19 20 21 22 23 24 25 26 27 28 29 30 31 32 33 34 35 36 37 38 39 40 41 42 43 44 45 46 47 48 49 50
000
ASUS43 KFSD 242310
RWRSD

WEATHER ROUNDUP FOR SOUTH DAKOTA
NATIONAL WEATHER SERVICE SIOUX FALLS SD
500 PM CST SAT FEB 24 2018

NOTE: "FAIR" INDICATES FEW OR NO CLOUDS BELOW 12,000 FEET WITH NO
SIGNIFICANT WEATHER AND/OR OBSTRUCTIONS TO VISIBILITY.


SDZ001>005-009-010-012>017-250000-
NORTHWEST AND NORTH CENTRAL SOUTH DAKOTA

CITY           SKY/WX    TMP DP  RH WIND       PRES   REMARKS
BUFFALO          N/A     19  10  68 W14       29.59S WCI   6
FAITH            N/A     19  13  77 W14       29.66F WCI   6
MOBRIDGE       CLOUDY    22  16  78 W6        29.64F WCI  14
$$

SDZ012>016-024>037-041>051-057-063-072>074-250000-
SOUTHWEST AND SOUTH CENTRAL SOUTH DAKOTA

CITY           SKY/WX    TMP DP  RH WIND       PRES   REMARKS
RAPID CTY ARPT PTSUNNY   25  15  66 N20       29.68S WCI  11
PIERRE         PTSUNNY   17  13  84 W14       29.69S WCI   3
CUSTER         CLOUDY    21   5  50 W18G26    29.60R WCI   6
ELLSWORTH AFB  MOSUNNY   26  16  64 N14       29.67S WCI  15
PHILIP         SUNNY     22  14  71 NW16      29.70S WCI   8
PINE RIDGE     MOSUNNY   28  13  53 W18G24    29.71F WCI  15
SPEARFISH        N/A     25  10  54 W16G23    29.67S WCI  12
WINNER         CLOUDY    21  15  78 NW13      29.68R WCI   9
$$

SDZ004>011-016>023-039-040-250000-
NORTHEAST SOUTH DAKOTA

CITY           SKY/WX    TMP DP  RH WIND       PRES   REMARKS
ABERDEEN       LGT SNOW  20  16  84 N9        29.67F FOG     WCI   9
WATERTOWN      CLOUDY    13   9  84 E6        29.62F WCI   4
BROOKINGS      FLURRIES  18  15  88 S5        29.63F WCI  11
SISSETON         N/A     14  11  87 W5        29.68F WCI   6
$$

SDZ017-020-022-023-036>040-048>070-250000-
SOUTHEAST SOUTH DAKOTA

CITY           SKY/WX    TMP DP  RH WIND       PRES   REMARKS
SIOUX FALLS    CLOUDY    21  17  84 W7        29.65S WCI  12
HURON          CLOUDY    18  15  88 W10       29.67F WCI   6
CHAMBERLAIN    CLOUDY    18  14  84 W10       29.69R WCI   6
MITCHELL       CLOUDY    18  14  84 NW7       29.68F WCI   9
YANKTON        CLOUDY    24  20  84 SW7       29.66F WCI  16
$$

ABBREVIATIONS USED IN REMARKS
   TC - TEMPERATURE IN CELSIUS
  WCI - WIND CHILL INDEX
   HX - HEAT INDEX
  VSB - VISIBILITY





USA.gov is the U.S. government's official web portal to all federal, state and local government web resources and services.